Weather History for Garden City, KS

Change the Weather History Date:

Friday, December 14, 2012

  Actual Average Record
Temperature  
Mean Temperature 41 °F 31 °F  
Max Temperature 52 °F 44 °F 70 °F (1977)
Min Temperature 30 °F 19 °F -5 °F (1963)
Degree Days  
Heating Degree Days 24 34  
Month to date heating degree days 365 450  
Since 1 July heating degree days 1345 1539  
Cooling Degree Days 0 0  
Month to date cooling degree days 0 0  
Year to date cooling degree days 1643 1298  
Moisture  
Dew Point 39 °F    
Average Humidity 69    
Maximum Humidity 100    
Minimum Humidity 37    
Precipitation  
Precipitation 0.53 in 0.01 in 0.53 in (2012)
Month to date precipitation 0.53 0.24  
Year to date precipitation 13.20 19.19  
Sea Level Pressure  
Sea Level Pressure 29.62 in    
Wind  
Wind Speed 13 mph (South)    
Max Wind Speed 32 mph    
Max Gust Speed 44 mph    
Visibility 8 miles    
Events Rain    
T = Trace of Precipitation, MM = Missing Value Source: NWS Daily Summary

Daily Weather History Graph

Daily Weather History Graph

Search for Another Location

Airport:

Trip Planner

Search our weather history database for the weather conditions in past years. The results will help you decide how hot, cold, wet, or windy it might be!

Date:

Astronomy

Dec. 14, 2012 Rise Set
Actual Time 7:51 AM CST 5:24 PM CST
Civil Twilight 7:21 AM CST 5:53 PM CST
Nautical Twilight 6:48 AM CST 6:26 PM CST
Astronomical Twilight 6:16 AM CST 6:58 PM CST
Moon 8:58 AM CST (12/14) 7:18 PM CST (12/14)
Length of Visible Light 10h 32m
Length of Day
9h 33m
Waxing Crescent, 3% of the Moon is Illuminated
Dec 14
Waxing Crescent
Dec 19
First Quarter
Dec 28
Full
Jan 4
Last Quarter
Jan 11
New

Hourly Weather History & Observations

Time (CST) Temp. Windchill Dew Point Humidity Pressure Visibility Wind Dir Wind Speed Gust Speed Precip Events Conditions
12:54 AM 39.9 °F 33.4 °F 17.1 °F 40% 29.90 in 10.0 mi South 10.4 mph - N/A   Clear
1:54 AM 39.9 °F 33.9 °F 16.0 °F 38% 29.90 in 10.0 mi South 9.2 mph - N/A   Clear
2:54 AM 39.0 °F 32.3 °F 16.0 °F 39% 29.89 in 10.0 mi SSW 10.4 mph - N/A   Clear
3:54 AM 37.9 °F 29.6 °F 18.0 °F 45% 29.88 in 10.0 mi SSW 13.8 mph - N/A   Clear
4:54 AM 36.0 °F 30.3 °F 19.0 °F 50% 29.88 in 10.0 mi SSW 6.9 mph - N/A   Clear
5:54 AM 34.0 °F 28.0 °F 21.0 °F 59% 29.89 in 10.0 mi SSW 6.9 mph - N/A   Clear
6:54 AM 30.9 °F 22.2 °F 21.9 °F 69% 29.90 in 10.0 mi South 10.4 mph - N/A   Clear
7:54 AM 33.1 °F 25.5 °F 26.1 °F 75% 29.89 in 10.0 mi South 9.2 mph - N/A   Clear
8:54 AM 35.1 °F 30.1 °F 28.9 °F 78% 29.87 in 10.0 mi South 5.8 mph - N/A   Clear
9:54 AM 39.0 °F 32.8 °F 32.0 °F 76% 29.85 in 10.0 mi South 9.2 mph - N/A   Clear
10:54 AM 44.1 °F 39.5 °F 37.0 °F 76% 29.83 in 10.0 mi South 8.1 mph - N/A   Mostly Cloudy
11:54 AM 48.9 °F - 41.0 °F 74% 29.77 in 10.0 mi South 15.0 mph - N/A   Partly Cloudy
12:54 PM 51.1 °F - 42.1 °F 71% 29.72 in 10.0 mi South 27.6 mph 32.2 mph N/A   Mostly Cloudy
1:06 PM 51.8 °F - 42.8 °F 71% 29.71 in 10.0 mi South 17.3 mph 26.5 mph 0.00 in Rain Light Rain
1:54 PM 50.0 °F - 46.0 °F 86% 29.66 in 10.0 mi South 20.7 mph - 0.00 in Rain Light Rain
2:06 PM 48.2 °F - 46.4 °F 93% 29.65 in 10.0 mi South 17.3 mph 23.0 mph 0.00 in Rain Light Rain
2:54 PM 48.9 °F - 46.0 °F 90% 29.66 in 7.0 mi South 16.1 mph 21.9 mph 0.02 in Rain Light Rain
3:50 PM 48.2 °F - 46.4 °F 93% 29.62 in 4.0 mi SSE 10.4 mph - 0.01 in Rain Light Rain
3:54 PM 48.2 °F - 46.4 °F 93% 29.62 in 4.0 mi SSE 10.4 mph - N/A Rain Light Rain
4:54 PM 48.0 °F - 46.9 °F 96% 29.59 in 5.0 mi ESE 10.4 mph - 0.01 in Rain Light Rain
5:04 PM 48.2 °F - 46.4 °F 93% 29.57 in 4.0 mi ESE 11.5 mph - 0.00 in Rain Light Rain
5:45 PM 48.2 °F - 46.4 °F 93% 29.55 in 8.0 mi SE 17.3 mph - 0.00 in Rain Light Rain
5:54 PM 48.0 °F - 46.9 °F 96% 29.56 in 10.0 mi SSE 17.3 mph - 0.00 in Rain Light Rain
6:38 PM 48.2 °F - 46.4 °F 93% 29.53 in 2.5 mi SE 19.6 mph 27.6 mph 0.07 in Rain Light Rain
6:41 PM 48.2 °F - 46.4 °F 93% 29.53 in 2.5 mi SE 20.7 mph 27.6 mph 0.10 in Rain Light Rain
6:51 PM 46.4 °F 40.4 °F 46.4 °F 100% 29.53 in 3.0 mi SE 13.8 mph - 0.17 in Rain Light Rain
6:54 PM 46.9 °F - 46.9 °F 100% 29.54 in 4.0 mi SE 13.8 mph - 0.18 in Rain Light Rain
7:38 PM 46.4 °F 39.5 °F 46.4 °F 100% 29.46 in 3.0 mi ESE 17.3 mph - 0.14 in Rain Light Rain
7:54 PM 46.9 °F - 46.0 °F 97% 29.46 in 6.0 mi ESE 17.3 mph - 0.15 in Rain Light Rain
8:11 PM 46.4 °F 39.8 °F 46.4 °F 100% 29.43 in 10.0 mi ESE 16.1 mph 27.6 mph 0.00 in Rain Light Rain
8:54 PM 46.9 °F - 46.0 °F 97% 29.41 in 10.0 mi SE 15.0 mph - 0.00 in Rain Light Rain
9:20 PM 46.4 °F 36.9 °F 44.6 °F 93% 29.38 in 7.0 mi SSW 32.2 mph 43.7 mph 0.02 in Rain Light Rain
9:29 PM 44.6 °F 34.9 °F 42.8 °F 93% 29.39 in 7.0 mi SSW 28.8 mph 41.4 mph 0.03 in Rain Light Rain
9:39 PM 44.6 °F 36.1 °F 42.8 °F 93% 29.39 in 4.0 mi SW 21.9 mph 35.7 mph 0.06 in Rain Light Rain
9:54 PM 44.1 °F 36.2 °F 42.1 °F 93% 29.39 in 6.0 mi SW 18.4 mph 31.1 mph 0.07 in Rain Light Rain
10:54 PM 43.0 °F 38.2 °F 41.0 °F 93% 29.38 in 10.0 mi SSW 8.1 mph - 0.03 in Rain Light Rain
11:23 PM 42.8 °F 37.5 °F 41.0 °F 93% 29.39 in 6.0 mi SW 9.2 mph - 0.02 in Rain Light Rain
11:45 PM 42.8 °F 37.0 °F 41.0 °F 93% 29.39 in 8.0 mi West 10.4 mph - N/A Rain Light Rain
11:54 PM 43.0 °F 36.4 °F 41.0 °F 93% 29.39 in 7.0 mi West 12.7 mph - 0.05 in Rain Light Rain